Location: Bovenkerk
(52.2915°N, 4.8336°E)
Time: 00:03:38
(UTC+00:00)

N. Korean satellite - Pass Details

Date: 07 March 2021
Orbit: 453 x 499 km, 97.2° (Epoch: 11 April)

Event Time Altitude Azimuth Distance (km) Brightness Sun altitude
Rises 05:08:53 0° 15° (NNE) 2,532 10.5 -10.6°
Reaches altitude 10° 05:10:57 10° 17° (NNE) 1,657 9.6 -10.3°
Maximum altitude 05:14:30 70° 102° (ESE) 517 6.9 -9.8°
Drops below altitude 10° 05:18:05 10° 187° (S) 1,669 9.2 -9.2°
Sets 05:20:10 0° 190° (S) 2,553 10.1 -8.9°
